| time (UTC) | temp F | wind direction | speed MPH | gust MPH | rain 1hr in | rain 24hr in | rain mn in | humidity % | barometer mb |
| 20260505041030 | 58 | 205 | 9.0 | 12.0 | 0.00 | 0.00 | 0.00 | 81 | 1009.1 |
| 20260505040057 | 58 | 186 | 10.0 | 12.0 | 0.00 | 0.00 | 0.00 | 81 | 1009.1 |
| 20260505035026 | 59 | 199 | 9.0 | 11.0 | 0.00 | 0.00 | 0.00 | 79 | 1009.1 |
| 20260505034053 | 59 | 216 | 8.0 | 16.0 | 0.00 | 0.00 | 0.00 | 78 | 1008.3 |
| 20260505033023 | 59 | 203 | 10.0 | 13.0 | 0.00 | 0.00 | 0.00 | 77 | |
| 20260505032031 | 60 | 202 | 9.0 | 13.0 | 0.00 | 0.00 | 0.00 | 76 | |
| 20260505031020 | 61 | 205 | 10.0 | 16.0 | 0.00 | 0.00 | 0.00 | 75 | |
| 20260505030036 | 62 | 215 | 12.0 | 16.0 | 0.00 | 0.00 | 0.00 | 74 | |
| 20260505025026 | 64 | 222 | 13.0 | 18.0 | 0.00 | 0.00 | 0.00 | 72 | |
| 20260505024024 | 65 | 205 | 9.0 | 16.0 | 0.00 | 0.00 | 0.00 | 70 | |
| 20260505023032 | 66 | 206 | 9.0 | 11.0 | 0.00 | 0.00 | 0.00 | 69 | |
| 20260505022042 | 67 | 221 | 10.0 | 12.0 | 0.00 | 0.00 | 0.00 | 68 | |
| 20260505021030 | 68 | 231 | 10.0 | 12.0 | 0.00 | 0.00 | 0.00 | 68 | |
| 20260505020019 | 68 | 184 | 8.0 | 10.0 | 0.00 | 0.00 | 0.00 | 66 | |
| 20260505015107 | 70 | 238 | 9.0 | 10.0 | 0.00 | 0.00 | 0.00 | 65 | |
| 20260505014034 | 70 | 223 | 9.0 | 14.0 | 0.00 | 0.00 | 0.00 | 64 | |
| 20260505013023 | 71 | 225 | 10.0 | 13.0 | 0.00 | 0.00 | 0.00 | 63 | |
| 20260505012031 | 72 | 226 | 9.0 | 12.0 | 0.00 | 0.00 | 0.00 | 62 | |
| 20260505011020 | 74 | 210 | 6.0 | 9.0 | 0.00 | 0.00 | 0.00 | 60 | |
| 20260505010048 | 74 | 194 | 7.0 | 10.0 | 0.00 | 0.00 | 0.00 | 60 | |
| 20260505005028 | 75 | 230 | 7.0 | 10.0 | 0.00 | 0.00 | 0.00 | 59 | |
| 20260505004025 | 75 | 191 | 7.0 | 9.0 | 0.00 | 0.00 | 0.00 | 59 | |
| 20260505003033 | 75 | 225 | 6.0 | 11.0 | 0.00 | 0.00 | 0.00 | 58 | |
| 20260505002022 | 75 | 180 | 4.0 | 9.0 | 0.00 | 0.00 | 0.00 | 59 | |
| 20260505001030 | 75 | 192 | 6.0 | 8.0 | 0.00 | 0.00 | 0.00 | 59 | |
| 20260505000019 | 75 | 218 | 6.0 | 10.0 | 0.00 | 0.00 | 0.00 | 58 | |
| 20260504235029 | 75 | 206 | 7.0 | 9.0 | 0.00 | 0.00 | 0.00 | 58 | |
| 20260504234200 | 74 | 169 | 5.0 | 8.0 | 0.00 | 0.00 | 0.00 | 59 | |
| 20260504233045 | 74 | 196 | 5.0 | 7.0 | 0.00 | 0.00 | 0.00 | 58 | |
| 20260504232032 | 75 | 176 | 5.0 | 7.0 | 0.00 | 0.00 | 0.00 | 58 | |
| 20260504231021 | 74 | 174 | 3.0 | 5.0 | 0.00 | 0.00 | 0.00 | 60 | |
| 20260504230030 | 73 | 152 | 6.0 | 8.0 | 0.00 | 0.00 | 0.00 | 62 | |
| 20260504225030 | 72 | 147 | 7.0 | 10.0 | 0.00 | 0.00 | 0.00 | 61 | |
| 20260504224020 | 72 | 91 | 7.0 | 9.0 | 0.00 | 0.00 | 0.00 | 61 | |
| 20260504223034 | 73 | 131 | 6.0 | 9.0 | 0.00 | 0.00 | 0.00 | 60 | |
| 20260504222024 | 73 | 165 | 7.0 | 11.0 | 0.00 | 0.00 | 0.00 | 60 | |
| 20260504221052 | 73 | 99 | 5.0 | 9.0 | 0.00 | 0.00 | 0.00 | 60 | |
| 20260504220021 | 72 | 121 | 6.0 | 10.0 | 0.00 | 0.00 | 0.00 | 60 | |
| 20260504215051 | 71 | 140 | 7.0 | 9.0 | 0.00 | 0.00 | 0.00 | 61 | |
| 20260504214021 | 71 | 162 | 6.0 | 8.0 | 0.00 | 0.00 | 0.00 | 61 | |
| 20260504213026 | 71 | 162 | 6.0 | 9.0 | 0.00 | 0.00 | 0.00 | 63 | |
| 20260504212034 | 70 | 103 | 7.0 | 11.0 | 0.00 | 0.00 | 0.00 | 63 | |
| 20260504211023 | 70 | 147 | 5.0 | 8.0 | 0.00 | 0.00 | 0.00 | 63 | |
| 20260504210050 | 70 | 117 | 6.0 | 9.0 | 0.00 | 0.00 | 0.00 | 63 | |
| 20260504205020 | 69 | 115 | 6.0 | 10.0 | 0.00 | 0.00 | 0.00 | 63 | |
| 20260504204022 | 69 | 152 | 6.0 | 9.0 | 0.00 | 0.00 | 0.00 | 65 | |
| 20260504203055 | 68 | 170 | 5.0 | 8.0 | 0.00 | 0.00 | 0.00 | 65 | |
| 20260504202043 | 68 | 136 | 5.0 | 9.0 | 0.00 | 0.00 | 0.00 | 66 | |
| 20260504201032 | 67 | 159 | 6.0 | 8.0 | 0.00 | 0.00 | 0.00 | 67 | |
| 20260504200021 | 67 | 112 | 5.0 | 8.0 | 0.00 | 0.00 | 0.00 | 68 | |
| 20260504195030 | 66 | 146 | 6.0 | 7.0 | 0.00 | 0.00 | 0.00 | 69 | |
| 20260504194023 | 66 | 108 | 7.0 | 10.0 | 0.00 | 0.00 | 0.00 | 70 | |
| 20260504193027 | 66 | 124 | 6.0 | 9.0 | 0.00 | 0.00 | 0.00 | 69 | |
| 20260504192055 | 65 | 152 | 6.0 | 8.0 | 0.00 | 0.00 | 0.00 | 71 | |
| 20260504191023 | 64 | 128 | 7.0 | 9.0 | 0.00 | 0.00 | 0.00 | 71 | |
| 20260504190031 | 64 | 123 | 7.0 | 10.0 | 0.00 | 0.00 | 0.00 | 73 | |
| 20260504185034 | 63 | 136 | 5.0 | 8.0 | 0.00 | 0.00 | 0.00 | 75 | |
| 20260504184024 | 63 | 173 | 5.0 | 7.0 | 0.00 | 0.00 | 0.00 | 74 | |
| 20260504183037 | 62 | 154 | 6.0 | 9.0 | 0.00 | 0.00 | 0.00 | 76 | |
| 20260504182027 | 62 | 152 | 5.0 | 8.0 | 0.00 | 0.00 | 0.00 | 76 | |
| 20260504181036 | 61 | 136 | 7.0 | 9.0 | 0.00 | 0.00 | 0.00 | 77 | |
| 20260504180023 | 61 | 133 | 8.0 | 12.0 | 0.00 | 0.00 | 0.00 | 77 | |
| 20260504175031 | 61 | 148 | 6.0 | 9.0 | 0.00 | 0.00 | 0.00 | 77 | |
| 20260504174020 | 60 | 125 | 6.0 | 9.0 | 0.00 | 0.00 | 0.00 | 78 | |
| 20260504173048 | 60 | 111 | 6.0 | 8.0 | 0.00 | 0.00 | 0.00 | 78 | |
| 20260504172036 | 60 | 135 | 7.0 | 10.0 | 0.00 | 0.00 | 0.00 | 80 | |
| 20260504171108 | 60 | 140 | 7.0 | 10.0 | 0.00 | 0.00 | 0.00 | 79 |